User: anonymous   Login
Location: Alberta Star Party
(51.6612°N, 112.9089°W)
Time: 01:44:11
(UTC-07:00)
Language:

AO-Echo - Orbit

View from above orbital plane
View from above orbital plane
View from above satellite
View from above satellite

Ground track
Ground track

The orbit data is extracted from the following two-line orbital elements,

1 28375U 04025K   14329.80624857  .00000182  00000-0  67020-4 0  9995
2 28375 098.2703 271.3647 0082233 223.2182 136.2535 14.41509279547186
Epoch (UTC): 25 November 2014 19:20:59
Eccentricity: 0.0082233
inclination: 98.2703°
perigee height: 695 km
apogee height: 812 km
right ascension of ascending node: 271.3647°
argument of perigee: 223.2182°
revolutions per day: 14.41509279
mean anomaly at epoch: 136.2535°
orbit number at epoch: 54718

The dashed part of the orbit path shows where the satellite is in the earth's shadow,  

DLR